Dewpoint
57 57 57 56 56 56 56 58 61 60 60 60 60 60 59 57 56 55 55 54 53 53 54 52 53 55 49 36 34 45 55 52 45 42 40 34 30 29 28 26 23 23 24 22 21 25 24
56 56 56 56 56 56 56 56 58 60 59 60 59 58 57 57 55 55 55 54 53 53 54 53 53 54 47 31 34 43 41 36 38 30 31 31 28 26 27 26 23 21 24 27 24 22 23
57 56 56 56 55 55 56 56 56 58 58 56 55 55 54 53 52 53 54 53 53 53 54 53 53 48 41 29 30 31 31 31 28 26 27 31 31 29 29 26 28 27 23 24 25 24 22
56 56 56 56 55 56 56 56 56 55 55 55 54 54 53 52 53 53 53 52 52 53 54 54 54 48 39 34 33 32 30 30 31 27 31 30 31 30 31 28 24 26 25 22 19 20 21
53 54 55 56 56 56 56 56 56 55 55 55 54 54 53 52 53 52 52 52 52 53 54 54 47 47 40 41 32 31 29 26 29 29 30 27 32 31 29 24 22 24 18 16 16 17 21
53 53 53 53 55 56 56 56 55 55 55 54 54 54 53 52 52 51 51 51 52 52 51 47 44 34 33 28 28 29 27 25 27 30 29 29 31 28 26 23 20 21 20 17 15 18 20
52 52 52 51 52 51 53 56 55 55 55 54 54 54 54 53 52 51 49 47 43 43 42 38 38 30 26 31 33 31 29 25 26 29 26 29 28 24 24 23 23 22 18 15 16 18 18
50 50 51 51 51 51 51 52 55 55 55 54 54 54 53 53 52 51 49 45 39 40 37 38 36 34 33 31 29 29 30 27 26 23 26 25 25 26 24 23 22 21 20 19 19 18 18
47 47 48 49 50 51 51 51 52 54 54 54 54 54 53 52 51 49 45 43 42 40 35 33 32 35 36 34 30 27 29 30 25 23 24 23 22 25 24 22 20 20 20 19 19 18 16
44 45 45 46 47 47 49 51 51 54 54 54 53 53 52 51 46 43 42 40 41 44 32 31 30 30 31 34 26 27 26 31 27 21 23 24 24 21 23 22 20 17 21 22 20 17 14
43 42 42 42 43 43 45 47 49 51 54 54 53 53 51 48 45 42 40 41 43 42 24 28 29 27 25 26 23 21 24 31 26 27 26 25 20 19 18 20 21 20 27 24 24 20 21
41 42 41 41 42 43 44 45 46 49 51 53 53 53 51 48 45 44 44 41 43 32 23 28 27 24 23 23 22 21 21 25 32 29 28 24 23 19 18 20 21 23 25 24 23 21 20
40 39 38 38 41 43 43 44 45 46 49 50 51 53 51 47 42 44 47 44 29 26 25 22 25 25 24 21 19 20 20 17 26 26 25 25 23 22 20 21 23 20 24 23 19 19 17
38 37 36 36 37 41 43 44 45 45 45 45 47 51 51 48 45 46 46 35 23 24 22 20 20 27 24 24 21 21 20 18 22 24 21 18 18 21 20 22 21 21 23 23 18 19 17
36 36 36 36 37 38 40 42 45 45 45 45 46 47 49 49 49 48 39 27 25 23 21 21 21 20 25 24 25 23 22 21 14 23 20 21 19 19 18 23 23 26 23 22 24 25 22
36 36 36 36 37 38 40 41 42 44 44 45 40 42 40 50 49 45 36 30 29 25 23 22 20 23 19 24 23 24 24 22 23 16 21 24 20 21 20 23 23 24 25 25 28 20 17
36 36 36 36 37 38 38 39 40 42 43 43 39 33 39 49 48 39 30 31 31 28 25 24 24 23 21 21 22 24 23 22 24 25 21 21 23 25 24 20 20 21 22 27 27 25 20
37 36 36 36 36 37 37 38 39 41 44 42 38 21 40 48 36 32 31 34 31 26 28 28 30 29 26 26 24 21 28 24 37 33 24 22 24 22 22 24 22 22 21 24 27 24 25
38 37 36 36 36 36 38 38 38 41 42 39 34 30 40 41 25 30 34 31 30 28 26 27 30 31 32 30 26 26 33 38 39 37 34 32 27 24 23 24 24 22 22 22 27 29 24
38 38 37 36 35 36 37 38 38 40 40 39 34 25 33 38 32 31 30 32 29 28 27 28 32 31 31 31 27 28 35 38 40 38 40 38 33 23 20 21 26 24 22 24 29 27 24
40 38 37 36 36 36 37 37 38 39 42 38 33 25 28 18 29 30 29 30 31 27 28 27 36 33 30 31 27 29 35 34 35 38 38 37 32 31 27 24 26 30 28 28 31 33 29
39 39 39 36 36 37 38 38 39 40 41 36 29 29 33 28 29 28 30 30 29 31 26 26 33 34 33 30 29 30 33 34 32 32 34 35 31 31 28 24 22 25 27 29 31 31 31
38 38 36 37 37 37 38 38 39 40 40 31 33 34 33 25 30 29 26 27 34 33 31 28 30 32 31 30 33 34 35 36 34 33 31 32 29 27 22 25 25 21 24 24 29 29 29
38 36 36 36 36 36 37 38 40 40 40 37 36 34 30 22 24 23 23 27 24 29 33 30 30 31 31 35 36 35 34 33 33 32 32 31 31 30 25 25 18 23 25 23 25 26 29
38 36 36 36 36 35 37 40 40 40 40 38 39 35 30 24 24 24 24 25 25 31 31 30 32 34 38 36 31 25 24 26 27 28 27 30 31 26 21 22 23 21 27 26 26 27 30
38 37 36 36 36 37 39 39 39 39 39 40 40 39 34 27 23 26 25 29 30 31 32 35 40 37 39 33 30 23 20 22 21 25 28 26 29 25 23 20 17 25 25 24 28 22 29
39 37 36 36 39 39 38 38 38 38 38 38 38 40 36 29 30 28 27 30 31 34 33 35 38 36 36 29 23 21 22 22 20 21 23 25 25 24 23 23 26 29 26 25 21 21 29
38 36 37 38 38 39 39 38 38 37 38 38 37 40 36 31 30 31 36 33 36 37 32 36 35 34 31 25 26 25 25 24 24 25 24 26 27 25 25 24 20 30 29 25 31 34 33
37 37 38 38 39 38 39 39 38 40 42 41 37 39 41 35 31 38 36 38 40 38 38 38 34 34 34 29 27 26 24 24 22 20 26 19 26 25 28 26 31 32 30 32 35 34 33
Lifted_Index
4 3 3 3 3 3 2 2 2 2 2 2 3 3 4 4 4 5 5 6 6 7 7 8 9 10 9 8 9 10 11 11 11 10 9 9 8 8 7 7 6 6 6 6 6 6 6
5 5 5 5 4 3 3 3 2 2 2 2 2 3 3 3 4 4 5 5 6 6 7 8 10 11 9 8 9 11 11 11 11 11 10 9 8 8 7 7 6 6 6 6 6 6 6
6 7 7 7 6 5 5 4 4 3 3 3 3 4 4 4 4 4 4 4 5 6 7 9 11 11 9 8 10 11 11 11 11 11 10 9 8 8 8 7 7 7 6 6 6 6 6
7 7 7 7 7 7 7 6 5 5 4 5 6 7 7 6 6 5 4 4 5 6 8 9 11 10 8 8 10 11 11 11 11 11 10 9 8 8 8 7 6 6 5 5 5 5 6
7 7 7 7 7 7 7 7 7 6 6 7 8 8 9 9 8 7 7 6 7 7 9 10 10 8 7 8 9 10 11 11 11 10 10 9 8 8 7 6 5 4 4 4 4 5 5
7 7 7 7 7 7 7 7 7 7 7 7 8 8 9 9 9 9 8 8 8 8 8 8 8 6 6 7 9 9 10 10 10 9 9 8 7 7 6 5 4 3 3 3 4 4 5
7 7 8 8 7 7 7 7 7 7 7 8 8 8 9 9 9 9 9 8 8 7 7 6 6 5 7 8 8 8 9 9 9 8 7 7 6 5 5 5 5 4 4 4 4 4 4
9 9 9 9 8 8 7 7 7 7 7 8 8 9 9 9 9 9 9 8 8 7 6 6 6 6 7 7 7 7 7 7 6 6 6 5 5 5 5 6 5 5 4 4 4 3 3
10 10 10 10 9 9 8 8 7 7 7 7 8 9 9 9 9 9 9 9 9 8 7 7 7 6 6 6 6 6 7 6 5 4 5 5 5 5 6 6 5 5 4 4 4 3 3
10 10 10 10 10 10 9 9 8 7 7 7 8 8 8 9 9 9 9 10 10 8 6 6 7 7 6 6 6 7 7 6 5 4 5 5 5 6 6 5 5 5 5 4 4 3 3
10 10 10 11 11 11 10 10 9 8 7 6 7 7 8 8 9 9 9 10 9 7 5 5 6 7 6 5 6 6 7 6 5 5 5 5 6 6 5 5 5 5 4 4 4 4 3
10 10 10 10 10 10 10 10 9 8 7 6 6 6 7 8 8 8 9 9 8 6 4 5 6 6 5 5 5 6 6 6 5 5 5 5 5 5 5 5 5 4 4 4 4 3 3
10 10 10 10 10 10 10 10 9 9 8 6 6 5 6 6 7 7 8 8 7 6 6 5 5 4 4 4 4 5 5 5 4 4 4 4 4 5 5 5 5 4 4 3 2 2 2
9 9 10 10 10 10 9 9 9 8 8 7 6 5 5 5 6 6 6 6 6 7 7 6 5 4 4 4 4 4 3 4 4 3 3 3 3 4 5 5 5 4 4 2 1 1 1
8 9 9 9 9 9 9 8 8 8 7 7 6 5 4 4 5 5 4 4 5 6 7 6 5 3 3 4 4 3 3 3 3 3 3 2 3 4 5 4 4 4 4 3 2 1 1
7 8 8 8 8 8 8 8 7 7 7 7 7 6 5 4 3 3 2 2 3 5 5 5 3 2 2 3 3 2 2 2 3 3 3 3 3 4 4 4 4 4 4 3 2 2 1
6 7 7 7 7 7 7 7 7 6 6 6 7 6 5 4 3 2 1 2 2 3 3 2 1 1 1 1 1 1 1 1 2 2 3 3 3 3 3 3 4 4 3 3 2 2 2
6 6 6 6 6 6 6 6 6 6 5 6 6 6 5 4 3 2 1 2 2 2 2 1 0 0 0 -0 -0 -0 -0 0 1 1 2 2 2 2 2 3 3 4 4 3 2 2 2
5 5 5 5 5 5 5 5 5 5 5 5 6 6 5 4 4 3 2 1 1 1 2 1 0 0 -0 -0 -0 -0 -0 0 0 1 1 1 1 2 2 2 2 3 3 3 2 2 3
4 5 5 5 5 5 5 4 4 4 4 5 6 6 5 5 4 3 2 1 1 1 1 1 0 0 0 0 -0 -0 0 0 1 1 1 1 1 1 1 1 1 2 2 2 1 1 2
4 4 4 5 5 4 4 4 4 4 4 5 6 6 5 4 4 3 2 2 1 1 1 1 1 0 0 0 0 0 0 1 1 2 2 2 1 1 1 1 1 1 1 1 1 1 1
3 4 4 4 4 4 4 4 4 3 4 5 5 5 4 4 3 3 2 2 1 1 1 1 1 0 0 0 0 0 1 2 2 3 3 3 3 2 1 1 1 1 1 1 1 1 0
3 4 4 4 4 4 4 3 3 3 4 5 5 5 4 4 3 3 2 2 1 1 1 1 0 0 0 0 0 0 1 2 2 3 3 3 3 2 2 1 1 2 2 2 1 1 1
3 4 4 4 4 4 4 3 3 3 3 4 4 4 4 4 4 4 3 2 2 1 1 1 0 0 0 0 0 1 1 2 2 3 3 3 2 2 2 2 1 2 2 2 2 1 1
3 3 4 4 4 4 4 3 3 3 3 3 3 3 4 4 5 4 4 3 2 2 1 1 0 0 0 0 0 1 1 2 2 2 2 2 2 1 1 1 2 2 2 2 1 1 1
3 3 3 4 4 3 3 3 3 3 3 3 3 3 3 4 5 4 4 3 2 2 1 1 0 0 0 0 0 1 1 2 2 2 1 1 1 1 1 1 1 2 2 1 1 1 1
3 3 3 3 3 3 3 3 3 3 3 3 3 2 3 4 4 4 4 3 2 1 1 1 1 0 0 0 1 1 1 1 1 1 0 0 1 1 1 1 1 1 1 1 1 1 1
2 3 3 2 2 2 3 3 3 3 3 3 2 2 2 4 4 4 4 3 1 1 1 1 1 1 1 1 1 1 1 1 1 1 0 0 0 0 0 1 1 1 1 1 1 1 1
3 2 2 2 2 2 3 3 3 3 2 2 2 1 2 4 4 4 4 3 1 0 1 1 1 1 1 1 1 1 0 0 1 1 0 0 0 0 0 0 0 1 1 1 1 1 0